706  
ASUS43 KBIS 271810  
RWRND  
 
NORTH DAKOTA REGIONAL WEATHER ROUNDUP  
NATIONAL WEATHER SERVICE BISMARCK ND  
100 PM CDT THU APR 27 2017  
 
NOTE: "FAIR" INDICATES FEW OR NO CLOUDS BELOW 12,000 FEET WITH NO  
SIGNIFICANT WEATHER AND/OR S TO VISIBILITY
.  
 
 
NDZ001>003-009>011-017-271900-  
NORTHWEST NORTH DAKOTA  
 
CITY SKY/WX TMP DP RH WIND PRES REMARKS
 
WILLISTON FAIR 48 21 34 VRB7 29.74F  
6HR MIN TEMP: 27; 6HR MAX TEMP: 48;  
 
MINOT FAIR 45 19 35 N10 29.75F  
MINOT AFB SUNNY 45 19 36 NE13 29.74F  

 
 
NDZ018>021-031>035-040>046-271900-  
SOUTHWEST NORTH DAKOTA  
 
CITY SKY/WX TMP DP RH WIND PRES REMARKS
 
BISMARCK FAIR 48 25 40 NE13 29.73F  
6HR MIN TEMP: 31; 6HR MAX TEMP: 48;  
 
DICKINSON FAIR 41 24 51 NE8 29.69S  
GARRISON NOT AVBL  
HETTINGER ARPT MOSUNNY 40 27 59 E9 29.70F  

 
 
NDZ004>008-012>016-024-026-027-054-271900-  
NORTHEAST NORTH DAKOTA  
 
CITY SKY/WX TMP DP RH WIND PRES REMARKS
 
GRAND FORKS PTSUNNY 38 26 62 N16 29.69F  
GRND FRKS AFB SUNNY 36 24 61 N14 29.69F  
DEVILS LAKE FAIR 42 25 50 N18G26 29.71F  

 
 
NDZ022-023-025-028>030-036>039-047>053-271900-  
SOUTHEAST NORTH DAKOTA  
 
CITY SKY/WX TMP DP RH WIND PRES REMARKS
 
FARGO SUNNY 32 24 72 N17 29.70S  
6HR MIN TEMP: 26; 6HR MAX TEMP: 32; 6HR PCP: TRACE;  
 
JAMESTOWN FAIR 43 27 53 N18 29.68F  

 
 
 
 
CLICK HERE TO GO TO PREVIOUS BULLETINS.

The Nexlab ND Page Main Text Page